Date String (YYYY-MM-DD hh:mm:ss) UTC,Instrument flags,absolute air pressure of the measurement (hPa),sample flow rate (lpm),inlet stack bypass flow (lpm),air temperature of the measurement (°C),ambient temperature measured by the external sensor (°C),aerosol sample conditioner tube jacket temperature (°C),OPC LED temperature (°C),internal box temperature (°C),relative humidity of the measurement (%),span deviation,mass concentration of particles derived from Lorenz-Mie calculation of OPC scattering (μg/m³),mass concentration of particles derived from Lorenz-Mie calculation of OPC scattering (μg/m³),mass concentration of particles derived from Lorenz-Mie calculation of OPC scattering (μg/m³)
DateTimeUTC,F1_M11,P_M11,Q1_M11,Q2_M11,T1_M11,T2_M11,T3_M11,T4_M11,T5_M11,U1_M11,ZSPAN_M11,X0_M11,X2_M11,X1_M11
2023-11-10 22:00:00,SystemResetWarning,0830.0,5.00,000.00,026.2,025.4,000.0,034.4,027.6,5.4,0000.0,0008.40,0003.41,0002.74
2023-11-10 22:01:00,SystemResetWarning,0830.0,5.00,000.00,026.2,025.4,000.0,034.4,027.6,5.5,0000.0,0008.42,0003.40,0002.76
2023-11-10 22:02:00,SystemResetWarning,0830.1,4.99,000.00,026.2,025.4,000.0,034.4,027.6,5.5,0000.0,0008.18,0003.40,0002.76
2023-11-10 22:03:00,SystemResetWarning,0830.0,4.99,000.00,026.2,025.4,000.0,034.4,027.7,5.5,0000.0,0008.16,0003.41,0002.78
2023-11-10 22:04:00,SystemResetWarning,0830.1,5.00,000.00,026.2,025.4,000.0,034.4,027.6,5.7,0000.0,0008.29,0003.41,0002.79
2023-11-10 22:05:00,SystemResetWarning,0830.0,5.00,000.00,026.3,025.5,000.0,034.4,027.7,5.6,0000.0,0008.55,0003.45,0002.83
2023-11-10 22:06:00,SystemResetWarning,0830.0,5.01,000.00,026.3,025.5,000.0,034.5,027.7,5.4,0000.0,0009.09,0003.50,0002.86
2023-11-10 22:07:00,SystemResetWarning,0830.0,5.01,000.00,026.3,025.5,000.0,034.5,027.6,5.4,0000.0,0009.20,0003.53,0002.88
2023-11-10 22:08:00,SystemResetWarning,0830.0,5.00,000.00,026.3,025.5,000.0,034.5,027.7,5.4,0000.0,0009.57,0003.59,0002.91
2023-11-10 22:09:00,SystemResetWarning,0830.0,5.00,000.00,026.3,025.5,000.0,034.5,027.7,5.6,0000.0,0009.68,0003.62,0002.94
2023-11-10 22:10:00,SystemResetWarning,0830.0,5.00,000.00,026.3,025.5,000.0,034.5,027.7,5.6,0000.0,0009.79,0003.66,0002.98
2023-11-10 22:11:00,SystemResetWarning,0830.0,5.00,000.00,026.3,025.5,000.0,034.5,027.7,5.6,0000.0,0008.81,0003.67,0003.00
2023-11-10 22:12:00,SystemResetWarning,0830.0,4.99,000.00,026.3,025.5,000.0,034.5,027.7,5.5,0000.0,0009.49,0003.72,0003.01
2023-11-10 22:13:00,SystemResetWarning,0830.0,5.00,000.00,026.3,025.5,000.0,034.5,027.7,5.4,0000.0,0009.79,0003.75,0003.03
2023-11-10 22:14:00,SystemResetWarning,0830.0,5.00,000.00,026.3,025.5,000.0,034.6,027.7,5.4,0000.0,0009.77,0003.75,0003.03
2023-11-10 22:15:00,SystemResetWarning,0830.0,5.00,000.00,026.3,025.5,000.0,034.6,027.7,5.5,0000.0,0009.61,0003.74,0003.01
2023-11-10 22:16:00,SystemResetWarning,0830.1,5.00,000.00,026.3,025.5,000.0,034.6,027.7,5.5,0000.0,0009.93,0003.74,0003.00
2023-11-10 22:17:00,SystemResetWarning,0830.0,5.00,000.00,026.3,025.5,000.0,034.6,027.7,5.3,0000.0,0009.58,0003.71,0002.99
2023-11-10 22:18:00,SystemResetWarning,0830.0,5.00,000.00,026.3,025.5,000.0,034.6,027.7,5.3,0000.0,0009.56,0003.69,0003.00
2023-11-10 22:19:00,SystemResetWarning,0830.0,5.00,000.00,026.3,025.5,000.0,034.6,027.6,5.2,0000.0,0009.01,0003.66,0002.99
2023-11-10 22:20:00,SystemResetWarning,0830.1,5.01,000.00,026.3,025.5,000.0,034.6,027.6,5.3,0000.0,0008.78,0003.64,0002.99
2023-11-10 22:21:00,SystemResetWarning,0830.1,5.01,000.00,026.3,025.5,000.0,034.6,027.6,5.3,0000.0,0008.79,0003.61,0002.99
2023-11-10 22:22:00,SystemResetWarning,0830.0,5.00,000.00,026.3,025.5,000.0,034.6,027.7,5.4,0000.0,0008.85,0003.59,0003.01
2023-11-10 22:23:00,SystemResetWarning,0830.0,5.00,000.00,026.3,025.5,000.0,034.6,027.6,5.3,0000.0,0008.52,0003.59,0003.04
2023-11-10 22:24:00,SystemResetWarning,0830.0,5.00,000.00,026.3,025.5,000.0,034.6,027.6,5.3,0000.0,0008.33,0003.58,0003.02
2023-11-10 22:25:00,SystemResetWarning,0830.1,5.00,000.00,026.3,025.5,000.0,034.6,027.6,5.3,0000.0,0008.50,0003.57,0003.02
2023-11-10 22:26:00,SystemResetWarning,0830.1,5.00,000.00,026.3,025.5,000.0,034.6,027.6,5.3,0000.0,0009.70,0003.62,0003.06
2023-11-10 22:27:00,SystemResetWarning,0830.0,5.00,000.00,026.3,025.5,000.0,034.6,027.5,5.3,0000.0,0010.13,0003.67,0003.09
2023-11-10 22:28:00,SystemResetWarning,0830.0,5.00,000.00,026.2,025.4,000.0,034.6,027.3,5.2,0000.0,0010.03,0003.70,0003.11
2023-11-10 22:29:00,SystemResetWarning,0830.0,5.00,000.00,026.2,025.4,000.0,034.6,027.4,5.4,0000.0,0010.17,0003.72,0003.13
2023-11-10 22:30:00,SystemResetWarning,0830.1,5.00,000.00,026.2,025.4,000.0,034.6,027.5,5.3,0000.0,0010.15,0003.74,0003.15
2023-11-10 22:31:00,SystemResetWarning,0830.0,5.00,000.00,026.2,025.4,000.0,034.6,027.6,5.2,0000.0,0011.05,0003.77,0003.16
2023-11-10 22:32:00,SystemResetWarning,0830.0,5.00,000.00,026.2,025.4,000.0,034.6,027.4,5.2,0000.0,0011.03,0003.79,0003.17
2023-11-10 22:33:00,SystemResetWarning,0830.1,5.00,000.00,026.2,025.4,000.0,034.6,027.4,5.2,0000.0,0011.32,0003.81,0003.18
2023-11-10 22:34:00,SystemResetWarning,0830.0,5.00,000.00,026.2,025.4,000.0,034.6,027.4,5.2,0000.0,0011.13,0003.81,0003.17
2023-11-10 22:35:00,SystemResetWarning,0830.0,5.00,000.00,026.2,025.4,000.0,034.6,027.4,5.2,0000.0,0010.92,0003.79,0003.17
2023-11-10 22:36:00,SystemResetWarning,0830.0,5.00,000.00,026.2,025.4,000.0,034.6,027.5,5.2,0000.0,0010.94,0003.78,0003.17
2023-11-10 22:37:00,SystemResetWarning,0830.0,5.01,000.00,026.2,025.4,000.0,034.6,027.5,5.2,0000.0,0010.02,0003.71,0003.15
2023-11-10 22:38:00,SystemResetWarning,0830.0,5.01,000.00,026.2,025.4,000.0,034.6,027.5,5.3,0000.0,0009.16,0003.64,0003.13
2023-11-10 22:39:00,SystemResetWarning,0830.1,5.00,000.00,026.2,025.4,000.0,034.6,027.5,5.3,0000.0,0009.13,0003.61,0003.10
2023-11-10 22:40:00,SystemResetWarning,0830.0,5.00,000.00,026.2,025.4,000.0,034.6,027.4,5.2,0000.0,0008.96,0003.58,0003.06
2023-11-10 22:41:00,SystemResetWarning,0830.0,5.00,000.00,026.2,025.4,000.0,034.6,027.4,5.2,0000.0,0008.88,0003.53,0003.03
2023-11-10 22:42:00,SystemResetWarning,0830.1,5.00,000.00,026.2,025.4,000.0,034.6,027.4,5.2,0000.0,0007.75,0003.48,0003.00
2023-11-10 22:43:00,SystemResetWarning,0830.1,5.01,000.00,026.2,025.4,000.0,034.5,027.4,5.2,0000.0,0007.53,0003.45,0002.95
2023-11-10 22:44:00,SystemResetWarning,0830.1,5.02,000.00,026.2,025.4,000.0,034.5,027.4,5.2,0000.0,0007.03,0003.45,0002.93
2023-11-10 22:45:00,SystemResetWarning,0830.1,5.01,000.00,026.2,025.4,000.0,034.5,027.4,5.2,0000.0,0006.95,0003.43,0002.93
2023-11-10 22:46:00,SystemResetWarning,0830.1,5.00,000.00,026.2,025.4,000.0,034.5,027.4,5.3,0000.0,0007.31,0003.47,0002.94
2023-11-10 22:47:00,SystemResetWarning,0830.1,5.00,000.00,026.2,025.4,000.0,034.5,027.4,5.3,0000.0,0007.04,0003.47,0002.95
2023-11-10 22:48:00,SystemResetWarning,0830.1,5.00,000.00,026.1,025.4,000.0,034.5,027.3,5.4,0000.0,0007.06,0003.49,0002.97
2023-11-10 22:49:00,SystemResetWarning,0830.1,5.00,000.00,026.1,025.4,000.0,034.5,027.3,5.4,0000.0,0007.37,0003.52,0003.00
2023-11-10 22:50:00,SystemResetWarning,0830.1,4.99,000.00,026.1,025.4,000.0,034.5,027.4,5.3,0000.0,0007.09,0003.53,0003.04
2023-11-10 22:51:00,SystemResetWarning,0830.1,5.00,000.00,026.1,025.4,000.0,034.5,027.4,5.3,0000.0,0007.43,0003.57,0003.08
2023-11-10 22:52:00,SystemResetWarning,0830.2,5.00,000.00,026.1,025.4,000.0,034.5,027.4,5.2,0000.0,0007.77,0003.61,0003.10
2023-11-10 22:53:00,SystemResetWarning,0830.2,5.00,000.00,026.1,025.3,000.0,034.5,027.3,5.3,0000.0,0007.85,0003.65,0003.13
2023-11-10 22:54:00,SystemResetWarning,0830.1,5.01,000.00,026.1,025.3,000.0,034.5,027.3,5.3,0000.0,0008.15,0003.70,0003.16
2023-11-10 22:55:00,SystemResetWarning,0830.2,5.01,000.00,026.1,025.3,000.0,034.5,027.4,5.4,0000.0,0008.94,0003.72,0003.19
2023-11-10 22:56:00,SystemResetWarning,0830.2,5.01,000.00,026.1,025.4,000.0,034.5,027.5,5.4,0000.0,0009.10,0003.73,0003.21
2023-11-10 22:57:00,SystemResetWarning,0830.3,5.00,000.00,026.1,025.4,000.0,034.5,027.5,5.4,0000.0,0009.02,0003.71,0003.24
2023-11-10 22:58:00,SystemResetWarning,0830.2,5.00,000.00,026.1,025.4,000.0,034.5,027.4,5.4,0000.0,0009.83,0003.76,0003.27
2023-11-10 22:59:00,SystemResetWarning,0830.2,5.00,000.00,026.1,025.4,000.0,034.5,027.4,5.5,0000.0,0009.83,0003.84,0003.30
